Location: Eisingen in Unterfranken
(49.7591°N, 9.8347°E)
Time: 03:26:56
(UTC+01:00)

N. Korean satellite - Pass Details

Date: 07 December 2022
Orbit: 408 x 444 km, 97.3° (Epoch: 28 January)

Event Time Altitude Azimuth Distance (km) Brightness Sun altitude
Rises 05:33:23 0° 16° (NNE) 2,514 10.3 -23.2°
Reaches altitude 10° 05:35:29 10° 20° (NNE) 1,627 9.3 -22.8°
Maximum altitude 05:38:56 57° 100° (E) 545 7.0 -22.3°
Drops below altitude 10° 05:42:18 10° 181° (S) 1,585 9.3 -21.7°
Sets 05:44:19 0° 185° (S) 2,442 10.2 -21.4°
